TOURFACTS.DK  
Stats and Facts from Tour de France.

Tour de France 2017 starts in 38 days
  Riders   Stages   Teams   Summits   Yearly  


 
Search by year

 After:  2016 - Stage 21:   14626 starters.
  5086 different riders.
  632 teams.
  2211 stages.
  454 restdays.
  436049.60 km.
  5622 abandonnees.


Top 3
Christopher Froome89:04:48
Romain Bardet89:08:53
Nairo Quintana89:09:09
Rafal Majka209 pt.
Thomas De Gendt130 pt.
Jarlinson Pantano ..121 pt.
Peter Sagan470 pt.
Marcel Kittel228 pt.
Michael Matthews199 pt.
Adam Yates89:09:30
Louis Meintjes89:11:46
Emanuel Buchmann89:52:28
Facts from Tour de France 2014
  |   Stages.  |   Stage winners.  |   Days in yellow  |   Average speed.  |   Route.  |   Teams.  |   All riders.  |   Rookies.  |   Withdrawls.  |  

  |   GC.  |   Polka  |   Green  |   White  |   Summits. (In tour)  |   Summits. (Points)  |   Miscellaneous.  |  

Stage 2 on 06 - 07 - 2014
         Owning:    Marcel Kittel      Jens Voigt      Marcel Kittel      Peter Sagan  

Pick a stage:  1 2 3 4 5 6 7 8 9 10 11 12 13 14 15 16 17 18 19 20 21
  YorkSheffield | Dist: 201.00 km.
Cat: 4Côte de BlubberhousesFRACyril Lemoine1 points 
Cat: 3Côte d'Oxenhope MoorFRAPerrig Quemeneur2 points 
Cat: 3Côte de RippondenFRACyril Lemoine2 points 
Cat: 3Côte de GreetlandFRACyril Lemoine2 points 
Cat: 2Côte de Holme MossFRABlel Kadri5 points 
Cat: 3Côte de MidhopestonesNLDTom-Jelte Slagter2 points 
Cat: 4Côte de BradfieldUKRAndriy Grivko1 points 
Cat: 3Côte d'OughtibridgeFRAPierre Rolland2 points 
Cat: 4Côte de Jenkin RoadKENChristopher Froome1 points 

Average speed for all riders in stage:  37,882 km./hr.
    Place:Name:Team:Time:Km/h:
ITAVincenzo NibaliKAZAstana Pro Team05:08:36  +  00:00:00=39,080 
BELGreg Van AvermaetUSABMC Racing Team05:08:38  +  00:00:02=39,075 
POLMichal KwiatkowskiBELOmega Pharma – Quick Step05:08:38  +  00:00:02=39,075 
4 SVKPeter SaganITACannondale Pro Cycling05:08:38  +  00:00:02=39,075 
5 FRATony GallopinBELLotto-Belisol Team05:08:38  +  00:00:02=39,075 
6 CHEMichael AlbasiniAUSOrica - GreenEDGE05:08:38  +  00:00:02=39,075 
7 USAAndrew TalanskyUSAGarmin Sharp05:08:38  +  00:00:02=39,075 
8 NLDBauke MollemaNLDBelkin Pro Cycling05:08:38  +  00:00:02=39,075 
9 USATejay Van GarderenUSABMC Racing Team05:08:38  +  00:00:02=39,075 
10 FRARomain BardetFRAAg2r La Mondiale05:08:38  +  00:00:02=39,075 
11 BELJurgen Van Den BroeckBELLotto-Belisol Team05:08:38  +  00:00:02=39,075 
12 DNKJakob FuglsangKAZAstana Pro Team05:08:38  +  00:00:02=39,075 
13 ESPAlberto ContadorRUSTinkoff Saxo05:08:38  +  00:00:02=39,075 
14 PRTRui CostaITALampre-Merida05:08:38  +  00:00:02=39,075 
15 ESPHaimar ZubeldiaUSATrek Factory Racing05:08:38  +  00:00:02=39,075 
16 FRAJean-Christophe PeraudFRAAg2r La Mondiale05:08:38  +  00:00:02=39,075 
17 ESPAlejandro ValverdeESPMovistar Team05:08:38  +  00:00:02=39,075 
18 PRTTiago PintoDEUTeam NetApp – Endura05:08:38  +  00:00:02=39,075 
19 KENChristopher FroomeGBRSky Procycling05:08:38  +  00:00:02=39,075 
20 ESPMikel NieveGBRSky Procycling05:08:38  +  00:00:02=39,075 
21 AUSRichie PorteGBRSky Procycling05:08:38  +  00:00:02=39,075 
22 FRAThibaut PinotFRAFDJ.fr05:08:52  +  00:00:16=39,046 
23 WALGeraint ThomasGBRSky Procycling05:08:52  +  00:00:16=39,046 
24 JPNChristopher HornerITALampre-Merida05:08:52  +  00:00:16=39,046 
25 NLDTom DumoulinNLDTeam Giant - Shimano05:08:52  +  00:00:16=39,046 
26 CHEMathias FrankCHEIAM Cycling05:08:52  +  00:00:16=39,046 
27 LUXFränk SchleckUSATrek Factory Racing05:08:52  +  00:00:16=39,046 
28 FRAPierre RollandFRATeam Europcar05:08:52  +  00:00:16=39,046 
29 CZELeopold KönigDEUTeam NetApp – Endura05:08:52  +  00:00:16=39,046 
30 RUSYury TrofimovRUSTeam Katusha05:08:52  +  00:00:16=39,046 
31 FRANicolas RocheRUSTinkoff Saxo05:08:52  +  00:00:16=39,046 
32 COLDarwin AtapumaUSABMC Racing Team05:08:52  +  00:00:16=39,046 
33 NLDLaurens ten DamNLDBelkin Pro Cycling05:08:52  +  00:00:16=39,046 
34 CHESébastien ReichenbachCHEIAM Cycling05:08:52  +  00:00:16=39,046 
35 ESTTanel KangertKAZAstana Pro Team05:08:52  +  00:00:16=39,046 
36 ITAAlessandro De MarchiITACannondale Pro Cycling05:08:52  +  00:00:16=39,046 
37 CHEFabian CancellaraUSATrek Factory Racing05:08:52  +  00:00:16=39,046 
38 FRACyril GautierFRATeam Europcar05:08:52  +  00:00:16=39,046 
39 FRARudy MolardFRACofidis – Solutions Crédits05:08:52  +  00:00:16=39,046 
40 ESPDaniel NavarroFRACofidis – Solutions Crédits05:08:52  +  00:00:16=39,046 
41 SVKPeter VelitsUSABMC Racing Team05:08:52  +  00:00:16=39,046 
42 NORAlexander KristoffRUSTeam Katusha05:08:52  +  00:00:16=39,046 
43 FRAArthur VichotFRAFDJ.fr05:08:52  +  00:00:16=39,046 
44 ITAMarco MarcatoITACannondale Pro Cycling05:08:52  +  00:00:16=39,046 
45 CHEMartin ElmigerCHEIAM Cycling05:08:52  +  00:00:16=39,046 
46 ITAMichele ScarponiKAZAstana Pro Team05:08:52  +  00:00:16=39,046 
47 RUSEgor SilinRUSTeam Katusha05:08:52  +  00:00:16=39,046 
48 DEUPaul VossDEUTeam NetApp – Endura05:08:52  +  00:00:16=39,046 
49 BELJan BakelantsBELOmega Pharma – Quick Step05:08:52  +  00:00:16=39,046 
50 CHEMarcel WyssCHEIAM Cycling05:09:32  +  00:00:56=38,962 
51 FRABrice FeilluFRABretagne - Séché Environnement05:09:55  +  00:01:19=38,914 
52 HRVKristijan DurasekITALampre-Merida05:09:55  +  00:01:19=38,914 
53 LUXAndy SchleckUSATrek Factory Racing05:09:55  +  00:01:19=38,914 
54 NLDBram TankinkNLDBelkin Pro Cycling05:09:55  +  00:01:19=38,914 
55 ITADaniel OssUSABMC Racing Team05:09:55  +  00:01:19=38,914 
56 NLDSteven KruijswijkNLDBelkin Pro Cycling05:10:21  +  00:01:45=38,859 
57 NLDTom-Jelte SlagterUSAGarmin Sharp05:10:21  +  00:01:45=38,859 
58 AUSSimon GerransAUSOrica - GreenEDGE05:10:21  +  00:01:45=38,859 
59 FRAAnthony DelaplaceFRABretagne - Séché Environnement05:10:21  +  00:01:45=38,859 
60 COLJanier AcevedoUSAGarmin Sharp05:10:21  +  00:01:45=38,859 
61 ESPJesus HerradaESPMovistar Team05:10:21  +  00:01:45=38,859 
62 AUSMichael RogersRUSTinkoff Saxo05:11:10  +  00:02:34=38,757 
63 AUSSimon ClarkeAUSOrica - GreenEDGE05:11:18  +  00:02:42=38,741 
64 ITAFabio SabatiniITACannondale Pro Cycling05:11:18  +  00:02:42=38,741 
65 POLBartosz HuzarskiDEUTeam NetApp – Endura05:11:18  +  00:02:42=38,741 
66 UKRAndriy GrivkoKAZAstana Pro Team05:12:16  +  00:03:40=38,621 
67 BELJens KeukeleireAUSOrica - GreenEDGE05:12:16  +  00:03:40=38,621 
68 ENGSimon YatesAUSOrica - GreenEDGE05:13:10  +  00:04:34=38,510 
69 ESPDavid LopezGBRSky Procycling05:13:10  +  00:04:34=38,510 
70 SVNSimon SpilakRUSTeam Katusha05:13:10  +  00:04:34=38,510 
71 FRAArnold JeannessonFRAFDJ.fr05:14:22  +  00:05:46=38,363 
72 LUXBen GastauerFRAAg2r La Mondiale05:14:22  +  00:05:46=38,363 
73 ESPRafael Valls FerriITALampre-Merida05:15:10  +  00:06:34=38,265 
74 USAPeter StetinaUSABMC Racing Team05:15:10  +  00:06:34=38,265 
75 JPNYukiya ArashiroFRATeam Europcar05:15:41  +  00:07:05=38,203 
76 ESPEgoitz GarciaFRACofidis – Solutions Crédits05:17:16  +  00:08:40=38,012 
77 FRASylvain ChavanelCHEIAM Cycling05:17:16  +  00:08:40=38,012 
78 BELJürgen RoelandtsBELLotto-Belisol Team05:19:07  +  00:10:31=37,792 
79 AUSAdam HansenBELLotto-Belisol Team05:19:07  +  00:10:31=37,792 
80 SVNKristjan KorenITACannondale Pro Cycling05:19:07  +  00:10:31=37,792 
81 NLDStef ClementNLDBelkin Pro Cycling05:19:07  +  00:10:31=37,792 
82 ITAGiovanni ViscontiESPMovistar Team05:19:07  +  00:10:31=37,792 
83 ESPRubén PlazaESPMovistar Team05:19:07  +  00:10:31=37,792 
84 ESPJosé Joaquin RojasESPMovistar Team05:19:07  +  00:10:31=37,792 
85 ESPImanol ErvitiESPMovistar Team05:19:07  +  00:10:31=37,792 
86 DEUMarcus BurghardtUSABMC Racing Team05:19:07  +  00:10:31=37,792 
87 FRAJean-Marc BideauFRABretagne - Séché Environnement05:19:07  +  00:10:31=37,792 
88 DEUTony MartinBELOmega Pharma – Quick Step05:19:07  +  00:10:31=37,792 
89 ITAMatteo TrentinBELOmega Pharma – Quick Step05:19:07  +  00:10:31=37,792 
90 USABenjamin KingUSAGarmin Sharp05:19:07  +  00:10:31=37,792 
91 CZEJan BártaDEUTeam NetApp – Endura05:19:07  +  00:10:31=37,792 
92 NLDLieuwe WestraKAZAstana Pro Team05:19:07  +  00:10:31=37,792 
93 PRTNelson OliveiraITALampre-Merida05:19:07  +  00:10:31=37,792 
94 FRASamuel DumoulinFRAAg2r La Mondiale05:19:07  +  00:10:31=37,792 
95 FRANicolas EdetFRACofidis – Solutions Crédits05:19:07  +  00:10:31=37,792 
96 POLMichal GolasBELOmega Pharma – Quick Step05:19:07  +  00:10:31=37,792 
97 CHEMichael SchärUSABMC Racing Team05:19:07  +  00:10:31=37,792 
98 COLJosé SerpaITALampre-Merida05:19:07  +  00:10:31=37,792 
99 FRAJérôme PineauCHEIAM Cycling05:19:07  +  00:10:31=37,792 
100 DEUJohn DegenkolbNLDTeam Giant - Shimano05:19:07  +  00:10:31=37,792 
101 ESPBeñat IntxaustiESPMovistar Team05:19:07  +  00:10:31=37,792 
102 CHEGregory RastUSATrek Factory Racing05:19:07  +  00:10:31=37,792 
103 AUSHeinrich HausslerCHEIAM Cycling05:19:07  +  00:10:31=37,792 
104 FRAThomas VoecklerFRATeam Europcar05:19:07  +  00:10:31=37,792 
105 FRAKévin RezaFRATeam Europcar05:19:07  +  00:10:31=37,792 
106 FRAJulien SimonFRACofidis – Solutions Crédits05:19:07  +  00:10:31=37,792 
107 FRAAmaël MoinardUSABMC Racing Team05:19:07  +  00:10:31=37,792 
108 FRAJérémy RoyFRAFDJ.fr05:19:07  +  00:10:31=37,792 
109 FRAJohn GadretESPMovistar Team05:19:07  +  00:10:31=37,792 
110 ESPLuis Angel MateFRACofidis – Solutions Crédits05:20:39  +  00:12:03=37,611 
111 ITAMatteo MontagutiFRAAg2r La Mondiale05:23:24  +  00:14:48=37,291 
112 FRAPerrig QuemeneurFRATeam Europcar05:23:24  +  00:14:48=37,291 
113 FRASébastien MinardFRAAg2r La Mondiale05:23:24  +  00:14:48=37,291 
114 USAEdward KingITACannondale Pro Cycling05:23:24  +  00:14:48=37,291 
115 FRABlel KadriFRAAg2r La Mondiale05:23:24  +  00:14:48=37,291 
116 BELBart De ClercqBELLotto-Belisol Team05:23:24  +  00:14:48=37,291 
117 FRAAlexandre PichotFRATeam Europcar05:23:24  +  00:14:48=37,291 
118 FRABryan CoquardFRATeam Europcar05:23:24  +  00:14:48=37,291 
119 ESPMarkel IrizarUSATrek Factory Racing05:23:24  +  00:14:48=37,291 
120 KAZMaxim IglinskiyKAZAstana Pro Team05:23:24  +  00:14:48=37,291 
121 DEUJens VoigtUSATrek Factory Racing05:23:24  +  00:14:48=37,291 
122 NLDKoen De KortNLDTeam Giant - Shimano05:23:24  +  00:14:48=37,291 
123 BELJohan VansummerenUSAGarmin Sharp05:23:24  +  00:14:48=37,291 
124 FRAFlorian VachonFRABretagne - Séché Environnement05:23:24  +  00:14:48=37,291 
125 FRAChristophe RiblonFRAAg2r La Mondiale05:23:24  +  00:14:48=37,291 
126 BELMaarten WynantsNLDBelkin Pro Cycling05:23:24  +  00:14:48=37,291 
127 USAMatthew BuscheUSATrek Factory Racing05:23:24  +  00:14:48=37,291 
128 USAAlex HowesUSAGarmin Sharp05:23:24  +  00:14:48=37,291 
129 DNKLars BakBELLotto-Belisol Team05:23:24  +  00:14:48=37,291 
130 NLDLars BoomNLDBelkin Pro Cycling05:23:24  +  00:14:48=37,291 
131 BLRVasil KiryienkaGBRSky Procycling05:23:24  +  00:14:48=37,291 
132 NLDSebastian LangeveldUSAGarmin Sharp05:23:24  +  00:14:48=37,291 
133 KAZDmitriy GruzdevKAZAstana Pro Team05:23:24  +  00:14:48=37,291 
134 ESPJoaquim RodriguezRUSTeam Katusha05:23:24  +  00:14:48=37,291 
135 CHEReto HollensteinCHEIAM Cycling05:23:24  +  00:14:48=37,291 
136 PRTSergio PaulinhoRUSTinkoff Saxo05:23:24  +  00:14:48=37,291 
137 NLDRoy CurversNLDTeam Giant - Shimano05:23:24  +  00:14:48=37,291 
138 FRAFlorian GuillouFRABretagne - Séché Environnement05:23:24  +  00:14:48=37,291 
139 FRACyril LemoineFRACofidis – Solutions Crédits05:23:24  +  00:14:48=37,291 
140 ESPJon Izaguirre InsaustiESPMovistar Team05:23:24  +  00:14:48=37,291 
141 ITALuca PaoliniRUSTeam Katusha05:23:24  +  00:14:48=37,291 
142 FRAYohann GèneFRATeam Europcar05:23:24  +  00:14:48=37,291 
143 FRAMickaël CherelFRAAg2r La Mondiale05:23:24  +  00:14:48=37,291 
144 CANSvein TuftAUSOrica - GreenEDGE05:24:15  +  00:15:39=37,194 
145 CANChristian MeierAUSOrica - GreenEDGE05:24:15  +  00:15:39=37,194 
146 LVAGatis SmukulisRUSTeam Katusha05:24:15  +  00:15:39=37,194 
147 AUSZakkari DempsterDEUTeam NetApp – Endura05:24:15  +  00:15:39=37,194 
148 AUSLuke DurbridgeAUSOrica - GreenEDGE05:24:15  +  00:15:39=37,194 
149 FRAArnaud GérardFRABretagne - Séché Environnement05:24:15  +  00:15:39=37,194 
150 FRAMatthieu LadagnousFRAFDJ.fr05:24:15  +  00:15:39=37,194 
151 BELSep VanmarckeNLDBelkin Pro Cycling05:24:15  +  00:15:39=37,194 
152 NLDTom LeezerNLDBelkin Pro Cycling05:24:15  +  00:15:39=37,194 
153 ESTRein TaaramäeFRACofidis – Solutions Crédits05:24:15  +  00:15:39=37,194 
154 AUSMathew HaymanAUSOrica - GreenEDGE05:24:15  +  00:15:39=37,194 
155 ESPJesus  HernandezRUSTinkoff Saxo05:24:15  +  00:15:39=37,194 
156 ESPDavid de la CruzDEUTeam NetApp – Endura05:24:15  +  00:15:39=37,194 
157 ESPXabier ZandioGBRSky Procycling05:24:15  +  00:15:39=37,194 
158 ITAMatteo TosattoRUSTinkoff Saxo05:24:15  +  00:15:39=37,194 
159 ITADaniele BennatiRUSTinkoff Saxo05:24:15  +  00:15:39=37,194 
160 DNKMichael MørkøvRUSTinkoff Saxo05:24:15  +  00:15:39=37,194 
161 ITAAlessandro VanottiKAZAstana Pro Team05:24:15  +  00:15:39=37,194 
162 POLRafal MajkaRUSTinkoff Saxo05:24:15  +  00:15:39=37,194 
163 POLMaciej BodnarITACannondale Pro Cycling05:24:15  +  00:15:39=37,194 
164 NLDNiki TerpstraBELOmega Pharma – Quick Step05:27:09  +  00:18:33=36,864 
165 NLDAlbert TimmerNLDTeam Giant - Shimano05:28:26  +  00:19:50=36,720 
166 DEUMarcel KittelNLDTeam Giant - Shimano05:28:26  +  00:19:50=36,720 
167 NLDTom VeelersNLDTeam Giant - Shimano05:28:26  +  00:19:50=36,720 
168 DEUAndreas SchillingerDEUTeam NetApp – Endura05:28:26  +  00:19:50=36,720 
169 NLDDanny van PoppelUSATrek Factory Racing05:28:26  +  00:19:50=36,720 
170 DEUMarcel SiebergBELLotto-Belisol Team05:28:26  +  00:19:50=36,720 
171 DEUAndré GreipelBELLotto-Belisol Team05:28:26  +  00:19:50=36,720 
172 PRTJosé João PimentaDEUTeam NetApp – Endura05:28:26  +  00:19:50=36,720 
173 NZLJack BauerUSAGarmin Sharp05:28:26  +  00:19:50=36,720 
174 LTURamunas NavardauskasUSAGarmin Sharp05:28:26  +  00:19:50=36,720 
175 FRARomain FeilluFRABretagne - Séché Environnement05:28:26  +  00:19:50=36,720 
176 CHNCheng JiNLDTeam Giant - Shimano05:28:26  +  00:19:50=36,720 
177 AUSMark RenshawBELOmega Pharma – Quick Step05:28:26  +  00:19:50=36,720 
178 ITAAlessandro PetacchiBELOmega Pharma – Quick Step05:28:26  +  00:19:50=36,720 
179 FRAAdrien PetitFRACofidis – Solutions Crédits05:28:26  +  00:19:50=36,720 
180 FRAWilliam BonnetFRAFDJ.fr05:28:26  +  00:19:50=36,720 
181 FRACédric PineauFRAFDJ.fr05:28:26  +  00:19:50=36,720 
182 FRAArnaud DémareFRAFDJ.fr05:28:26  +  00:19:50=36,720 
183 FRAMickael DelageFRAFDJ.fr05:28:26  +  00:19:50=36,720 
184 ITADavide CimolaiITALampre-Merida05:28:26  +  00:19:50=36,720 
185 ITAElia VivianiITACannondale Pro Cycling05:28:26  +  00:19:50=36,720 
186 FRAArmindo FonsecaFRABretagne - Séché Environnement05:28:26  +  00:19:50=36,720 
187 FRAJean-Marc MarinoITACannondale Pro Cycling05:28:26  +  00:19:50=36,720 
188 FRABenoît JarrierFRABretagne - Séché Environnement05:28:26  +  00:19:50=36,720 
189 BELDries DevenynsNLDTeam Giant - Shimano05:28:26  +  00:19:50=36,720 
190 NZLGregory HendersonBELLotto-Belisol Team05:28:26  +  00:19:50=36,720 
191 RUSVladimir IsaichevRUSTeam Katusha05:28:26  +  00:19:50=36,720 
192 RUSAlexander PorsevRUSTeam Katusha05:28:26  +  00:19:50=36,720 
193 USADanny PateGBRSky Procycling05:28:26  +  00:19:50=36,720 
194 AUTBernhard EiselGBRSky Procycling05:28:26  +  00:19:50=36,720 
195 DEURoger KlugeCHEIAM Cycling05:28:26  +  00:19:50=36,720 
196 BRAMaximilano RichezeITALampre-Merida05:30:58  +  00:22:22=36,439 

Withdrawls: 2
 
Rider
Team
Reason
71  IMNMark CavendishBELOmega Pharma – Quick StepDid not start
115  ITASacha ModoloITALampre-MeridaDid not finish

Todays birthdays.

1892  Alfred Steux
1899  Giovanni Grespan
1903  Jose Trueba
1914  Giordano Cottur
1920  Robert Castelin
1922  François Person
1931  John Kennedy
1931  Isaac Vitré
1940  Andre van Aert
1944  Jean-Claude Theilliere
1951  Roger Verschaeve
1955  Bernard Becaas
1967  Roberto Caruso
1969  Gianvito Martinelli
1974  Fabio Sacchi
1979  Giampaolo Cheula